CZ-2D DEB (45801 NORAD) Tracking and Keplerian Element Data

This shows tracking and keplerian element data for the satellite.

Feedback or suggestion? Click here.




ElementValue
Catalog45801
NameCZ-2D DEB
Epoch Orbit229
Epoch Day184.83739918
Epoch Year2020
RAAN306.1133
Inclination97.4455
Eccentricity0.0023543
Argument of Perigee94.5424
Mean Anonmoly265.8487
Mean Motion15.18201647
Decay Rate1.213E-05
L11 45801U 20039E 20184.83739918 .00001213 00000-0 62252-4 0 9993
L22 45801 97.4455 306.1133 0023543 94.5424 265.8487 15.18201647 2294

Live tracking and technical data element details for CZ-2D DEB (NORAD 45801). CZ-2D DEB can be tracked NOW for your location showing map with azimuth and elevation plus other details from your city location.

Track the satellite on the map from your city or location and see movement details for azimuth, elevation, latitude, longitude, range, height, and movement on the map or in text.







IsCatalogInMostPopularTable: catalog: 45801, numindb: 5
Update: records affected: 1



GetName: 45801 CZ-2D DEB

Hit Count: updated at: Sat, 04 Jul 2020 03:21:06 GMT